sat.trackr.live / text

‹ back to catalog

STARLINK-34241

NORAD 64229 · 2025-117AC

PAYLOAD ACTIVE UNKNOWN

§ Identity

Operator
Country
US
Launch date
2025-05-31
Launch site
AFWTR
Launch vehicle
Mass (kg)
RCS (m²)

Purposes: comms

External: N2YO · Heavens-Above · Gunter

§ Orbital elements

Epoch: 2026-05-25T02:32:11.995296Z

Period
93.90 min
Inclination
53.1608°
Eccentricity
0.0001049
Mean motion
15.33561346 rev/d
Perigee alt
464.5 km
Apogee alt
465.9 km
Semi-major
6,843.3 km
B*
5.7806e-4
RAAN
44.8393°
Arg perigee
85.7519°
Mean anomaly
274.3603°
Rev number
5,625

§ Raw data

STARLINK-342411 64229U 25117AC  26145.10569439  .00018693  00000+0  57806-3 0  99992 64229  53.1608  44.8393 0001049  85.7519 274.3603 15.33561346 56258

JSON: /api/v1/satellites/64229 · /tle

For live sub-satellite position, see the globe view (requires WebGL).

§ Visibility from observer

Set your observer location to see the next 7 days of passes ≥ 10°. The values pass through the URL so the page stays shareable.

No JS? Fill the form by hand. The geolocation button needs JavaScript.